GW1480 Weather Reports


Display with metric or nautical units.
time (UTC)temp
F
wind
direction
speed
MPH
gust
MPH
rain 1hr
in
rain 24hr
in
rain mn
in
humidity
%
barometer
mb
20260903231545 82 239 0.0 0.0 0.00 0.00 0.00 95 1015.2
20260903230912 82 234 0.0 0.0 0.00 0.00 0.00 95 1015.5
20260903230333 83 237 0.0 0.0 0.00 0.00 0.00 95 1015.2
20260903225727 84 249 0.0 0.0 0.00 0.00 0.00 95 1015.2
20260903225135 86 237 0.0 0.0 0.00 0.00 0.00 92 1015.2
20260903224512 86 246 0.0 0.0 0.00 0.00 0.00 91 1015.2
20260903223934 87 249 0.0 0.0 0.00 0.00 0.00 89 1014.9
20260903223349 88 240 0.0 0.0 0.00 0.00 0.00 86 1014.9
20260903222714 88 251 0.0 0.0 0.00 0.00 0.00 84 1014.5
20260903221520 89 244 0.0 0.0 0.00 0.00 0.00 83 1014.9
20260903220942 89 243 0.0 0.0 0.00 0.00 0.00 82 1014.5
20260903220317 89 252 0.0 0.0 0.00 0.00 0.00 82 1014.5
20260903215722 89 244 0.0 0.0 0.00 0.00 0.00 82 1014.5
20260903215142 89 249 0.0 0.0 0.00 0.00 0.00 82 1014.5
20260903214506 89 240 0.0 0.0 0.00 0.00 0.00 80 1014.9
20260903213336 89 238 0.0 0.0 0.00 0.00 0.00 82 1014.5
20260903212722 89 233 0.0 0.0 0.00 0.00 0.00 83 1014.9
20260903212112 89 264 0.0 0.0 0.00 0.00 0.00 80 1014.9
20260903211534 89 256 0.0 0.0 0.00 0.00 0.00 80 1014.9
20260903210324 90 228 0.0 0.0 0.00 0.00 0.00 75 1015.2
20260903205707 89 249 0.0 0.0 0.00 0.00 0.00 78 1015.5
20260903205146 89 254 0.0 0.0 0.00 0.00 0.00 81 1015.5
20260903204536 90 234 0.0 0.0 0.00 0.00 0.00 76 1015.5
20260903203919 91 232 0.0 0.0 0.00 0.00 0.00 73 1015.5
20260903203310 92 232 0.0 0.0 0.00 0.00 0.00 75 1015.5
20260903202114 95 224 0.0 0.0 0.00 0.00 0.00 74 1015.9
20260903201522 96 239 0.0 0.0 0.00 0.00 0.00 69 1015.9
20260903200908 96 2 0.0 0.0 0.00 0.00 0.00 54 1015.9
20260903200344 96 258 0.0 0.0 0.00 0.00 0.00 57 1015.9
20260903195707 96 55 0.0 0.0 0.00 0.00 0.00 58 1015.9
20260903195111 95 58 0.0 0.0 0.00 0.00 0.00 56 1016.2
20260903194544 94 240 0.0 0.0 0.00 0.00 0.00 63 1016.2
20260903193947 94 91 0.0 0.0 0.00 0.00 0.00 58 1015.9
20260903192714 94 264 0.0 0.0 0.00 0.00 0.00 67 1016.2
20260903192139 95 225 0.0 2.0 0.00 0.00 0.00 65 1016.2
20260903191546 95 214 0.0 2.0 0.00 0.00 0.00 66 1016.5
20260903190945 95 299 0.0 2.0 0.00 0.00 0.00 59 1016.5
20260903190337 95 300 0.0 0.0 0.00 0.00 0.00 57 1016.9
20260903185112 95 218 0.0 0.0 0.00 0.00 0.00 61 1016.5
20260903184523 95 176 0.0 0.0 0.00 0.00 0.00 61 1016.5
20260903183933 95 258 0.0 0.0 0.00 0.00 0.00 57 1016.5
20260903183306 94 205 0.0 0.0 0.00 0.00 0.00 59 1016.9
20260903182707 94 347 0.0 0.0 0.00 0.00 0.00 58 1016.9
20260903182137 93 238 0.0 0.0 0.00 0.00 0.00 62 1016.9
20260903181538 92 265 0.0 0.0 0.00 0.00 0.00 61 1016.9
20260903180926 91 246 0.0 0.0 0.00 0.00 0.00 66 1016.9
20260903180346 90 243 2.0 5.0 0.00 0.00 0.00 70 1017.2
20260903175707 90 123 0.0 0.0 0.00 0.00 0.00 62 1017.2
20260903175119 91 67 0.0 0.0 0.00 0.00 0.00 66 1017.2
20260903174541 91 211 0.0 0.0 0.00 0.00 0.00 69 1017.2
20260903173943 92 224 0.0 0.0 0.00 0.00 0.00 78 1017.2
20260903173347 93 284 0.0 0.0 0.00 0.00 0.00 69 1017.2
20260903172111 93 244 2.0 5.0 0.00 0.00 0.00 63 1017.2
20260903171521 93 210 0.0 0.0 0.00 0.00 0.00 63 1017.6
20260903170347 92 116 3.0 5.0 0.00 0.00 0.00 65 1017.6
20260903165747 92 301 1.0 2.0 0.00 0.00 0.00 67 1017.6
20260903165109 92 343 6.0 10.0 0.00 0.00 0.00 65 1017.6
20260903164514 92 193 0.0 0.0 0.00 0.00 0.00 65 1017.9
20260903163922 91 263 0.0 0.0 0.00 0.00 0.00 68 1017.9
20260903163314 91 236 1.0 2.0 0.00 0.00 0.00 73 1017.9
20260903162743 91 218 0.0 0.0 0.00 0.00 0.00 69 1017.9
20260903162108 91 247 0.0 2.0 0.00 0.00 0.00 73 1017.9
20260903160909 90 254 0.0 0.0 0.00 0.00 0.00 71 1017.9
20260903160307 90 278 0.0 0.0 0.00 0.00 0.00 75 1018.2
20260903155750 90 212 0.0 0.0 0.00 0.00 0.00 71 1017.9
20260903155146 90 228 0.0 0.0 0.00 0.00 0.00 75 1017.9
20260903154550 89 309 0.0 0.0 0.00 0.00 0.00 70 1017.9
20260903153930 89 138 0.0 0.0 0.00 0.00 0.00 70 1017.9
20260903153332 88 221 0.0 0.0 0.00 0.00 0.00 78 1018.2
20260903152749 88 214 0.0 0.0 0.00 0.00 0.00 75 1017.9
20260903152117 88 225 0.0 0.0 0.00 0.00 0.00 76 1017.9
20260903151534 88 217 0.0 0.0 0.00 0.00 0.00 77 1017.9
20260903150909 87 217 2.0 2.0 0.00 0.00 0.00 82 1018.2
20260903150336 87 202 0.0 0.0 0.00 0.00 0.00 76 1017.9
20260903145721 87 67 0.0 0.0 0.00 0.00 0.00 79 1017.9
20260903145137 87 238 0.0 0.0 0.00 0.00 0.00 80 1018.2
20260903144524 87 25 3.0 5.0 0.00 0.00 0.00 76 1018.2
20260903143911 87 156 0.0 0.0 0.00 0.00 0.00 77 1017.9
20260903143349 86 180 0.0 0.0 0.00 0.00 0.00 80 1018.2
20260903142717 86 127 0.0 0.0 0.00 0.00 0.00 78 1018.2
20260903141520 85 105 0.0 0.0 0.00 0.00 0.00 82 1018.6
20260903140339 83 92 1.0 2.0 0.00 0.00 0.00 83 1018.2
20260903135710 82 192 0.0 0.0 0.00 0.00 0.00 84 1018.2
20260903135149 81 154 0.0 0.0 0.00 0.00 0.00 86 1017.9
20260903134538 80 139 0.0 2.0 0.00 0.00 0.00 87 1018.6
20260903133922 79 224 0.0 0.0 0.00 0.00 0.00 89 1017.9
20260903132118 76 57 3.0 5.0 0.00 0.00 0.00 93 1018.2
20260903131542 75 89 3.0 5.0 0.00 0.00 0.00 95 1018.2
20260903130912 74 19 3.0 7.0 0.00 0.00 0.00 97 1018.6
20260903130309 74 79 3.0 5.0 0.00 0.00 0.00 99 1018.6
20260903125748 74 87 0.0 0.0 0.00 0.00 0.00 99 1018.6
20260903125122 73 224 0.0 0.0 0.00 0.00 0.00 99 1018.9
20260903124521 72 234 0.0 0.0 0.00 0.00 0.00 99 1018.6
20260903122715 69 235 0.0 0.0 0.00 0.00 0.00 99 1018.6
20260903122150 68 235 0.0 0.0 0.00 0.00 0.00 99 1018.9
20260903120946 68 234 0.0 0.0 0.00 0.00 0.00 99 1018.6
20260903120332 68 235 0.0 0.0 0.00 0.00 0.00 99 1018.6
20260903115741 68 236 0.0 0.0 0.00 0.00 0.00 99 1018.6
20260903115112 68 237 0.0 0.0 0.00 0.00 0.00 99 1018.6
20260903114544 68 236 0.0 0.0 0.00 0.00 0.00 99 1018.2
20260903113906 68 236 0.0 0.0 0.00 0.00 0.00 99 1018.2
20260903113322 68 236 0.0 0.0 0.00 0.00 0.00 99 1018.2
20260903112724 68 240 0.0 0.0 0.00 0.00 0.00 99 1018.6
20260903112110 67 235 0.0 0.0 0.00 0.00 0.00 99 1017.9
20260903111518 67 230 0.0 0.0 0.00 0.00 0.00 99 1017.9
20260903110912 67 228 0.0 0.0 0.00 0.00 0.00 99 1017.9
20260903110347 67 235 0.0 0.0 0.00 0.00 0.00 99 1017.9
20260903105709 67 236 0.0 0.0 0.00 0.00 0.00 99 1017.9
20260903104523 67 233 0.0 0.0 0.00 0.00 0.00 99 1017.9
20260903103932 67 233 0.0 0.0 0.00 0.00 0.00 99 1017.9
20260903102724 68 241 0.0 0.0 0.00 0.00 0.00 99 1017.9
20260903101537 68 233 0.0 0.0 0.00 0.00 0.00 99 1017.6
20260903100939 68 236 0.0 0.0 0.00 0.00 0.00 99 1017.6
20260903100316 68 236 0.0 0.0 0.00 0.00 0.00 99 1017.6
20260903095728 68 238 0.0 0.0 0.00 0.00 0.00 99 1017.6
20260903093345 68 236 0.0 0.0 0.00 0.00 0.00 99 1017.6
20260903092706 68 236 0.0 0.0 0.00 0.00 0.00 99 1017.6
20260903092127 68 233 0.0 0.0 0.00 0.00 0.00 99 1017.6
20260903091542 68 233 0.0 0.0 0.00 0.00 0.00 99 1017.6
20260903090914 69 236 0.0 0.0 0.00 0.00 0.00 99 1017.2
20260903090341 69 235 0.0 0.0 0.00 0.00 0.00 99 1017.6
20260903085130 69 235 0.0 0.0 0.00 0.00 0.00 99 1017.6
20260903084549 69 236 0.0 0.0 0.00 0.00 0.00 99 1017.6
20260903083943 70 233 0.0 0.0 0.00 0.00 0.00 99 1017.6
20260903083337 70 236 0.0 0.0 0.00 0.00 0.00 99 1017.6
20260903082709 70 237 0.0 0.0 0.00 0.00 0.00 99 1017.6
20260903080311 69 227 0.0 0.0 0.00 0.00 0.00 99 1017.2
20260903075721 69 226 0.0 0.0 0.00 0.00 0.00 99 1017.6
20260903074521 69 220 0.0 0.0 0.00 0.00 0.00 99 1017.6
20260903073915 69 233 0.0 0.0 0.00 0.00 0.00 99 1017.6
20260903073311 69 234 0.0 0.0 0.00 0.00 0.00 99 1017.6
20260903072115 69 233 0.0 0.0 0.00 0.00 0.00 99 1017.2
20260903071506 69 230 0.0 0.0 0.00 0.00 0.00 99 1017.2
20260903070338 70 236 0.0 0.0 0.00 0.00 0.00 99 1017.2
20260903064530 70 238 0.0 0.0 0.00 0.00 0.00 99 1017.2
20260903063923 70 236 0.0 0.0 0.00 0.00 0.00 99 1017.2
20260903063349 70 235 0.0 0.0 0.00 0.00 0.00 99 1017.2
20260903062738 71 235 0.0 0.0 0.00 0.00 0.00 99 1017.2
20260903061509 71 236 0.0 0.0 0.00 0.00 0.00 99 1017.2
20260903055742 71 225 0.0 0.0 0.00 0.00 0.00 99 1017.2
20260903055123 71 235 0.0 0.0 0.00 0.00 0.00 99 1017.2
20260903054512 71 234 0.0 0.0 0.00 0.00 0.00 99 1017.6
20260903053912 71 197 0.0 0.0 0.00 0.00 0.00 99 1017.2
20260903053326 71 226 0.0 0.0 0.00 0.00 0.00 99 1017.6
20260903052716 71 234 0.0 0.0 0.00 0.00 0.00 99 1017.2
20260903052140 71 235 0.0 0.0 0.00 0.00 0.00 99 1017.6
20260903051516 72 234 0.0 0.0 0.00 0.00 0.00 99 1017.2
20260903050946 72 236 0.0 0.0 0.00 0.00 0.00 99 1017.6
20260903050316 72 236 0.0 0.0 0.00 0.00 0.00 99 1017.2
20260903045748 72 236 0.0 0.0 0.00 0.00 0.00 99 1017.2
20260903045134 72 218 0.0 0.0 0.00 0.00 0.00 99 1017.2
20260903044533 72 225 0.0 0.0 0.00 0.00 0.00 99 1017.2
20260903043325 72 201 0.0 0.0 0.00 0.00 0.00 99 1017.2
20260903042124 72 235 0.0 0.0 0.00 0.00 0.00 99 1017.2
20260903041529 72 240 0.0 0.0 0.00 0.00 0.00 99 1017.2
20260903040939 72 220 0.0 0.0 0.00 0.00 0.00 99 1017.2
20260903040314 72 218 0.0 0.0 0.00 0.00 0.00 99 1017.2
20260903035743 72 227 0.0 0.0 0.00 0.00 0.00 99 1017.2
20260903035135 72 227 0.0 0.0 0.00 0.00 0.00 99 1017.2
20260903034514 72 225 0.0 0.0 0.00 0.00 0.00 99 1017.6
20260903033911 72 235 0.0 0.0 0.00 0.00 0.00 99 1017.6
20260903033312 72 237 0.0 0.0 0.00 0.00 0.00 99 1017.6
20260903032713 72 234 0.0 0.0 0.00 0.00 0.00 99 1017.2
20260903032137 72 234 0.0 0.0 0.00 0.00 0.00 99 1017.6
20260903031547 73 234 0.0 0.0 0.00 0.00 0.00 99 1017.6
20260903030924 73 234 0.0 0.0 0.00 0.00 0.00 99 1017.6
20260903030322 73 243 0.0 0.0 0.00 0.00 0.00 99 1017.6
20260903025125 73 229 0.0 0.0 0.00 0.00 0.00 99 1017.2
20260903024531 73 246 0.0 0.0 0.00 0.00 0.00 99 1017.6
20260903023946 73 225 0.0 0.0 0.00 0.00 0.00 99 1017.6
20260903023331 73 224 0.0 0.0 0.00 0.00 0.00 99 1017.6
20260903022714 73 211 0.0 0.0 0.00 0.00 0.00 99 1017.6
20260903022143 73 220 0.0 0.0 0.00 0.00 0.00 99 1017.2
20260903021535 72 206 0.0 0.0 0.00 0.00 0.00 99 1017.6
20260903020909 73 235 0.0 0.0 0.00 0.00 0.00 99 1017.2
20260903020345 73 236 0.0 0.0 0.00 0.00 0.00 99 1017.6
20260903014529 73 236 0.0 0.0 0.00 0.00 0.00 99 1017.6
20260903013913 73 222 0.0 0.0 0.00 0.00 0.00 99 1017.6
20260903012719 73 236 0.0 0.0 0.00 0.00 0.00 99 1017.2
20260903012116 74 231 0.0 0.0 0.00 0.00 0.00 99 1017.2
20260903011516 74 234 0.0 0.0 0.00 0.00 0.00 99 1017.2
20260903010932 74 224 0.0 0.0 0.00 0.00 0.00 99 1017.2
20260903010347 74 229 0.0 0.0 0.00 0.00 0.00 99 1017.2
20260903005737 74 231 0.0 0.0 0.00 0.00 0.00 99 1016.9
20260903005112 74 225 0.0 0.0 0.00 0.00 0.00 99 1016.9
20260903004510 75 232 0.0 0.0 0.00 0.00 0.00 99 1016.9
20260903003930 75 224 0.0 0.0 0.00 0.00 0.00 99 1016.9
20260903003317 75 218 0.0 0.0 0.00 0.00 0.00 99 1016.9
20260903002744 76 235 0.0 0.0 0.00 0.00 0.00 99 1016.9
20260903001505 76 230 0.0 0.0 0.00 0.00 0.00 99 1016.9
20260903000931 76 232 0.0 0.0 0.00 0.00 0.00 99 1016.9
20260903000344 77 234 0.0 0.0 0.00 0.00 0.00 99 1016.9
20260902235720 77 232 0.0 0.0 0.00 0.00 0.00 98 1016.9
20260902235116 77 229 0.0 0.0 0.00 0.00 0.00 98 1016.5
20260902234516 78 235 0.0 0.0 0.00 0.00 0.00 98 1016.5
20260902233910 78 236 0.0 0.0 0.00 0.00 0.00 97 1016.9
20260902233347 78 230 0.0 0.0 0.00 0.00 0.00 97 1016.5
20260902232721 79 236 0.0 0.0 0.00 0.00 0.00 96 1016.5